Regional Weather Roundup
Issued by NWS

Home | Current Version | Previous Version | Text Only | Print | Product List | Glossary On
Versions: 1 2 3 4 5 6 7 8 9 10 11 12 13 14 15 16 17 18 19 20 21 22 23 24 25 26 27 28 29 30 31 32 33 34 35 36 37 38 39 40 41 42 43 44 45 46 47 48 49 50
000
ASUS43 KMPX 071410
RWRMN
WEATHER ROUNDUP FOR MINNESOTA
NATIONAL WEATHER SERVICE TWIN CITIES/CHANHASSEN MN
800 AM CST WED DEC 07 2016


NOTE: "FAIR" INDICATES FEW OR NO CLOUDS BELOW 12,000 FEET WITH NO
SIGNIFICANT WEATHER AND/OR OBSTRUCTIONS TO VISIBILITY. N/A MEANS
CURRENT SKY AND/OR WEATHER CONDITIONS ARE NOT AVAILABLE.

MNZ060>063-068>070-071500-
   Twin Cities Metro

CITY           SKY/WX    TMP DP  RH WIND       PRES   REMARKS
TWIN CITIES    FLURRIES  17   9  70 SW15G24   29.99R WCI   2
ST PAUL        CLOUDY    18  11  74 W14       30.01R WCI   4
CRYSTAL        FLURRIES  17   8  67 W18G24    29.97R WCI   1
BLAINE         FLURRIES  19  10  68 W17G25    29.95S WCI   4
LAKEVILLE      FLURRIES  14   9  79 W14G25    30.01R WCI  -1
EDEN PRAIRIE   FLURRIES  16   8  71 W13G23    30.00R WCI   2
SOUTH ST PAUL  FLURRIES  18  10  73 SW13G21   30.00R WCI   4
LAKE ELMO      FLURRIES  19  12  73 W15G26    29.98R WCI   5
$$
MNZ001>005-007-008-013>017-022>024-027-028-071500-
   Northwest Minnesota

CITY           SKY/WX    TMP DP  RH WIND       PRES   REMARKS
BEMIDJI        LGT SNOW  14  10  85 W21G26    29.77R WCI  -4
HALLOCK        LGT SNOW  18  16  93 NW30      29.81R WCI  -2
ROSEAU         CLOUDY    21  18  86 W17G23    29.71R WCI   7
WARROAD        CLOUDY    21  18  86 W15       29.68R WCI   8
THIEF RVR FALL LGT SNOW  14  11  87 W23       29.83R VSB 1   WCI  -5
CROOKSTON      LGT SNOW  16  12  86 NW29G35   29.88R VSB 1   WCI  -4
FOSSTON        LGT SNOW  12  10  92 W20G28    29.84R WCI  -6
DETROIT LAKES  LGT SNOW  12  10  92 W22G28    29.90R WCI  -7
MOORHEAD       CLOUDY    12   7  79 W21       29.98R WCI  -6
PARK RAPIDS    LGT SNOW  13   6  74 W20       29.83R WCI  -5
$$
MNZ006-009>011-018-025>026-071500-
   North Central Minnesota

CITY           SKY/WX    TMP DP  RH WIND       PRES   REMARKS
BAUDETTE       LGT SNOW  20  17  88 W16G24    29.64R FOG     WCI   6
FLAG ISLAND    CLOUDY    25  21  86 NW20G26   29.64R WCI  11
INTL FALLS     LGT SNOW  23  20  88 W8G17     29.60R FOG     WCI  14
WASKISH        CLOUDY    19  16  86 W22G31    29.70R WCI   3
BIG FORK       LGT SNOW  19  16  86 W12G18    29.67R WCI   7
LONGVILLE      LGT SNOW  14  10  85 W15       29.79R WCI  -1
GRAND RAPIDS   LGT SNOW  16  11  80 W15G26    29.75R WCI   1
CRANE LAKE     LGT SNOW  19  18  93 W6        29.61R WCI  11
ORR            LGT SNOW  19  16  86 W12G17    29.59R WCI   7
COOK           LGT SNOW  18  16  93 SW14G22   29.63R WCI   4
$$
MNZ012-019>021-037-071500-
   Northeast Minnesota

CITY           SKY/WX    TMP DP  RH WIND       PRES   REMARKS
DULUTH         LGT SNOW  15  11  83 W21       29.71R BLWGSNOWWCI  -2
ELY            LGT SNOW  18  16  93 W12G20    29.59R WCI   5
HIBBING        LGT SNOW  16  13  88 W10G20    29.68R VSB 1   WCI   4
EVELETH        LGT SNOW  19  14  82 W14       29.67R WCI   5
DULUTH HARBOR  FLURRIES  19  16  86 SW22      29.78R WCI   3
TWO HARBORS    FLURRIES  19  12  73 W15G22    29.68R WCI   5
SILVER BAY     LGT SNOW  18  14  86 SW7G18    29.65R WCI   8
GRAND MARAIS     N/A     24  19  81 W10G18    29.62R WCI  14
G MARAIS ARPRT LGT SNOW  16  12  86 SW7       29.54R WCI   6
$$
MNZ029>031-032-039>041-046>048-054>057-064-071500-
   West Central Minnesota

CITY           SKY/WX    TMP DP  RH WIND       PRES   REMARKS
FERGUS FALLS   LGT SNOW  10   7  85 W29       30.03R WCI -11
WHEATON        MOCLDY    12   7  79 W20G29    30.07R WCI  -6
MORRIS         FLURRIES  12   7  79 W25G35    30.01S WCI  -8
ALEXANDRIA     LGT SNOW  11   7  84 W22G33    29.96R VSB 1   WCI  -8
ELBOW LAKE     LGT SNOW  10   7  85 NW21G30   30.00R WCI  -9
WADENA         LGT SNOW  10   7  85 W18G28    29.88R WCI  -8
GLENWOOD       LGT SNOW  10   9  92 W28       29.97R WCI -11
APPLETON       CLOUDY    14   7  73 W18G28    30.05S WCI  -3
BENSON         FLURRIES  14   7  73 NW23G31   30.02F WCI  -5
ORTONVILLE     CLEAR     10   3  72 W16G25    30.06S WCI  -7
MADISON        CLEAR     12   7  79 W21G29    30.09R WCI  -6
WILLMAR        FLURRIES  16  10  79 W22G30    30.02R WCI  -2
$$
MNZ033>034-036-042>043-049>051-058-059-071500-
   Central Minnesota

CITY           SKY/WX    TMP DP  RH WIND       PRES   REMARKS
ST CLOUD       FLURRIES  15   8  73 W21       29.95R WCI  -2
PAYNESVILLE    FLURRIES  13   8  79 W21G26    29.99S WCI  -5
AITKIN         MIX PCPN  18   9  68 W10G21    29.81R WCI   6
PINE RIVER     FLURRIES  12   9  85 W8G16     29.86R WCI   1
BRAINERD       CLOUDY    13   7  77 W20G29    29.86R WCI  -5
STAPLES        LGT SNOW  10   7  85 W20G25    29.88R WCI  -8
LONG PRAIRIE   FLURRIES  12   7  79 SW14G24   29.93R WCI  -3
LITTLE FALLS   FLURRIES  14   7  73 W16G25    29.92R WCI  -2
LITCHFIELD     FLURRIES  16  10  79 W17G25    30.00R WCI   0
BUFFALO        FLURRIES  17   9  72 W15G21    29.99S WCI   2
MAPLE LAKE     FLURRIES  17  11  77 W12G26    29.98S WCI   4
HUTCHINSON     CLOUDY    15  10  80 W18G29    30.02R WCI  -1
$$
MNZ037-044-045-052-053-071500-
   East Central Minnesota

CITY           SKY/WX    TMP DP  RH WIND       PRES   REMARKS
PRINCETON      CLOUDY    16   9  73 W20G26    29.93R WCI  -1
MORA           PTCLDY    14   9  79 W14G24    29.90R WCI  -1
CAMBRIDGE      FLURRIES  18   9  68 W13G24    29.91S WCI   4
RUSH CITY      CLOUDY    16  10  79 W15G21    29.91R WCI   1
MOOSE LAKE     LGT SNOW  18  12  79 W14G20    29.80R WCI   4
HINCKLEY       FLURRIES  18  10  73 SW16G23   29.88R WCI   3
CLOQUET        FLURRIES  16   9  73 SW14G24   29.75R WCI   1
MCGREGOR       CLOUDY    18  10  73 W12G20    29.81R WCI   5
$$
MNZ071>073-080-081-089-090-097-098-071500-
   Southwest Minnesota

CITY           SKY/WX    TMP DP  RH WIND       PRES   REMARKS
MONTEVIDEO     CLOUDY    12   5  73 NW14G25   30.08R WCI  -3
GRANITE FALLS  CLEAR     13   6  76 W22G29    30.10R WCI  -6
CANBY          CLEAR     11   4  75 NW15G26   30.10R WCI  -5
MARSHALL       CLEAR      9   3  77 W22       30.09R WCI -11
REDWOOD FALLS  MOCLDY    13   3  64 W20G30    30.08R WCI  -5
OLIVIA         FLURRIES  16  10  79 W18       30.04R WCI  -1
PIPESTONE      CLEAR      9   3  78 NW20      30.11R WCI -11
WINDOM         CLEAR      9   3  78 W20G26    30.09R WCI -11
WORTHINGTON    CLEAR      8   3  80 W24G31    30.12R WCI -13
JACKSON        CLEAR      9   3  78 W21       30.11R WCI -11
TRACY          CLEAR     10   5  79 W10G22    30.09R WCI  -3
SLAYTON        CLEAR      7   3  83 W24G32    30.08S WCI -15
$$
MNZ065>067-074>077-082>085-091>093-071500-
   South Central Minnesota

CITY           SKY/WX    TMP DP  RH WIND       PRES   REMARKS
MANKATO        CLOUDY    13   6  74 W16G23    30.06S WCI  -3
NEW ULM        CLOUDY    12   5  73 W20G25    30.07S WCI  -6
ST JAMES       CLOUDY    12   7  79 W15       30.11R WCI  -4
FAIRMONT       CLOUDY    11   5  77 W17G28    30.12R WCI  -6
GLENCOE        CLOUDY    16  12  84 W18G26    30.02R WCI  -1
FARIBAULT      FLURRIES  16   9  73 W17       30.04S WCI   0
OWATONNA       CLOUDY    14   7  73 W18       30.05R WCI  -3
WASECA         CLOUDY    14   9  79 W23       30.07S WCI  -5
ALBERT LEA     CLEAR     16  10  79 W12G23    30.07R WCI   3
$$
MNZ078>079-086>088-094>096-071500-
   Southeast Minnesota

CITY           SKY/WX    TMP DP  RH WIND       PRES   REMARKS
ROCHESTER      LGT SNOW  13   9  84 W18       30.02R FOG     WCI  -4
RED WING       CLOUDY    18   9  68 W14G22    30.00R WCI   4
STANTON        FLURRIES  17   9  72 W16G24    30.02S WCI   2
DODGE CENTER   FLURRIES  12   9  85 W15G25    30.03R WCI  -4
WINONA         CLOUDY    19  12  73 W10       30.06R WCI   8
AUSTIN         CLOUDY    12   7  79 W14G22    30.06R WCI  -3
PRESTON        LGT SNOW  12   8  82 W13G21    30.04S WCI  -3
$$
ABBREVIATIONS USED IN REMARKS
   TC - TEMPERATURES IN CELSIUS
  WCI - WIND CHILL INDEX
   HX - HEAT INDEX
  VSB - VISIBILITY
$$




USA.gov is the U.S. government's official web portal to all federal, state and local government web resources and services.